Flag for Germany Weather past 2 weeks in Rheda-Wiedenbrück, North Rhine-Westphalia, Germany

Now
48 °F

Passing clouds.


Feels Like: 46 °F
Forecast: 44 / 61 °F
Wind: 6 mph from West

Location: Paderborn / Lippstadt

Current Time: Sep 22, 2014 at 2:25:30 PM

Latest Report: Sep 22, 2014 at 1:50 PM


Visibility: N/A

Pressure: 30.04 "Hg

Humidity: 94%

Dew point: 46 °F

Location of Rheda-WiedenbrückLocation

Historic Weather in Rheda-Wiedenbrück — Graph

°F

Rheda-Wiedenbrück temperature yesterday

Maximum temperature yesterday: 59 °F (at 4:20 AM)
Minimum temperature yesterday: 52 °F (at 9:50 PM)
Average temperature yesterday: 57 °F

Past Weeks' High & Low Weather Summary

 TemperatureHumidityPressure
High73 °F (Sep 17, 4:20 PM)100% (Sep 7, 1:20 PM)30.24 "Hg (Sep 7, 1:20 PM)
Low45 °F (Sep 12, 3:50 AM)50% (Sep 17, 4:20 PM)29.86 "Hg (Sep 19, 4:50 AM)
Average59 °F86%30.04 "Hg
* Reported Sep 7 1:20 PM — Sep 22 1:20 PM, Rheda-Wiedenbrück, Weather by CustomWeather, © 2014

Note: Actual official high and low records may vary slightly from our data, if they occured in-between our weather recording intervals... More about our weather records

Advertising

Rheda-Wiedenbrück weather history for previous 24 hours

 ConditionsComfort  
Time TempWeatherWind HumidityBarometerVisibility
1:20 PM
Sep 22
46 °FPassing clouds.10 mph93%30.04 "HgN/A
12:50 PM45 °FScattered clouds.7 mph100%30.04 "HgN/A
12:20 PM52 °FThunderstorms. Partly sunny.15 mph82%30.01 "Hg4 mi
11:50 AM54 °FScattered showers. Scattered clouds.13 mph82%30.01 "Hg5 mi
11:20 AM52 °FSprinkles. Broken clouds.13 mph88%30.01 "Hg5 mi
10:50 AM52 °FSprinkles. Broken clouds.13 mph82%30.01 "Hg5 mi
10:20 AM52 °FScattered clouds.14 mph82%30.01 "Hg5 mi
9:50 AM52 °FScattered clouds.13 mph88%30.01 "Hg5 mi
9:20 AM52 °FScattered clouds.12 mph88%30.01 "Hg6 mi
8:50 AM50 °FBroken clouds.12 mph94%30.04 "Hg6 mi
8:20 AM50 °FBroken clouds.9 mph94%30.04 "Hg5 mi
7:50 AM50 °FPassing clouds.9 mph100%30.04 "Hg4 mi
7:20 AM50 °FSprinkles. Partly cloudy.9 mph100%30.04 "Hg3 mi
6:50 AM50 °FSprinkles. Partly cloudy.9 mph94%30.04 "Hg4 mi
6:20 AM50 °FLight rain. Partly cloudy.8 mph94%30.04 "Hg4 mi
5:50 AM50 °FLight rain. Partly cloudy.8 mph94%30.04 "Hg4 mi
5:20 AM50 °FLight rain. Partly cloudy.9 mph100%30.04 "Hg6 mi
4:50 AM50 °FPassing clouds.10 mph100%30.04 "HgN/A
4:20 AM50 °FPassing clouds.9 mph100%30.04 "HgN/A
11:50 PM
Sep 21
52 °FPassing clouds.8 mph94%30.07 "HgN/A
11:20 PM52 °FPassing clouds.7 mph94%30.07 "HgN/A
10:20 PM52 °FPassing clouds.6 mph94%30.07 "HgN/A
9:50 PM52 °FPassing clouds.6 mph94%30.07 "HgN/A
9:20 PM54 °FPassing clouds.6 mph94%30.04 "HgN/A
8:20 PM54 °FScattered clouds.6 mph88%30.04 "HgN/A
7:50 PM54 °FScattered clouds.6 mph82%30.04 "HgN/A
7:20 PM55 °FScattered clouds.6 mph72%30.01 "HgN/A
6:50 PM57 °FScattered clouds.10 mph72%30.01 "HgN/A
6:20 PM57 °FScattered clouds.7 mph72%30.01 "HgN/A
5:50 PM57 °FScattered clouds.9 mph67%30.01 "HgN/A
5:20 PM59 °FScattered clouds.9 mph72%29.98 "HgN/A
4:20 PM59 °FScattered clouds.7 mph77%29.98 "HgN/A
3:50 PM57 °FScattered clouds.8 mph82%29.98 "HgN/A
3:20 PM57 °FScattered clouds.10 mph100%29.98 "Hg6 mi
2:50 PM57 °FBroken clouds.7 mph100%29.98 "Hg6 mi
2:20 PM57 °FBroken clouds.5 mph100%30.01 "Hg6 mi
Weather by CustomWeather, © 2014

See weather overviewHow to use our weather pages